Tracking 33404 objects as of 6-Mar-2026
HD Live streaming from Space Station
objects crossing your sky now

SDA_1677

Track SDA_1677 now!
10-day predictions


NORAD ID: 65987
Int'l Code: 2025-230P
Perigee: 951.9 km
Apogee: 957.0 km
Inclination: 81.3 °
Period: 104.0 minutes
Semi major axis: 7325 km
RCS: Unknown
Launch date: October 15, 2025
Source: United States (US)
Launch site: AIR FORCE WESTERN TEST RANGE (AFWTR)
Your satellite tracking list
Your tracking list is empty




NASA's NSSDC Master Catalog

Two Line Element Set (TLE):
1 65987U 25230P   26065.19957784  .00000310  00000-0  26497-3 0  9991
2 65987  81.2988 307.2391 0003468  72.0317 288.1217 13.84684809 19559
Source of the keplerian elements: AFSPC